User: anonymous   Login
Location: Deep South Regional Star Gaze
(30.9929°N, 90.9586°W)
Time: 04:56:20
(UTC-06:00)
Language:

H-2A R/B - Orbit

View from above orbital plane
View from above orbital plane
View from above satellite
View from above satellite

Ground track
Ground track

The orbit data is extracted from the following two-line orbital elements,

1 26899U 01038B   16043.62094162  .00004031  00000-0  67662-3 0  9998
2 26899  28.0560 264.9333 7143674 222.5666  51.7251  2.46622536124372
Epoch (UTC): 12 February 2016 14:54:09
Eccentricity: 0.7143674
inclination: 28.0560°
perigee height: 231 km
apogee height: 33293 km
right ascension of ascending node: 264.9333°
argument of perigee: 222.5666°
revolutions per day: 2.46622536
mean anomaly at epoch: 51.7251°
orbit number at epoch: 12437

The dashed part of the orbit path shows where the satellite is in the earth's shadow,  

DLR